Vertical_Velocity
82 -4 -8 1 7 7 0 -5 -14 -14 -6 -2 -5 -1 -3 -4 -5 1 -1 -1 -4 -1 -1 3 0 -2 1 -3 -1 -1 -1 0 0 1 1 1 -0 1
17 2 1 4 5 5 3 1 -0 -5 -4 -11 -6 -5 -7 -3 -5 -1 -2 -1 -3 -2 -3 3 2 -3 -2 -3 0 -1 -2 -0 -1 0 -1 -0 0 -0
66 4 -0 1 -1 -6 9 3 -2 1 -2 4 8 -0 3 4 -2 -0 0 -3 -1 -3 -4 1 -3 -1 2 -0 -1 -2 -1 -1 -1 -1 -1 0 -1 -0
11 19 6 7 -4 -0 -7 6 -2 0 -4 -5 -6 -2 -8 -0 2 -0 -0 -3 1 -2 -1 -3 -1 0 1 -1 -0 0 0 -0 -1 -1 -0 -2 -1 1
-6 -6 -5 -6 -5 -5 -9 4 -2 3 5 -1 -7 2 5 2 3 -1 1 -0 1 1 0 -1 -1 -3 -2 3 1 -1 -2 -0 1 1 0 1 0 0
-3 -4 1 -5 -4 -4 -5 -1 -7 2 2 4 2 -2 0 -4 2 -2 -2 7 2 -0 -5 0 3 1 -1 -4 -3 2 0 -5 -3 -2 -2 -1 -1 -0
-15 3 3 -5 -4 -5 -10 -2 -4 4 4 2 2 4 1 0 -10 -10 2 -2 -1 -2 -2 -2 0 -4 -0 1 -3 -2 -3 -0 -2 -2 -2 -2 -1 -1
-9 3 3 3 4 0 4 2 -5 -11 -6 -3 -5 -3 -5 -5 -0 -3 -6 2 -3 -1 4 -1 -5 1 -4 -3 -7 -2 -2 -2 -1 -1 -2 -2 -2 -2
11 5 12 4 2 1 4 5 -1 -1 8 -9 -11 -13 -4 -6 -4 -1 2 -3 -11 -1 -1 -10 -6 -6 -3 -4 -4 1 -3 -1 1 -1 -1 -1 -1 -1
-4 2 3 9 -5 -2 7 2 6 4 -1 4 11 -3 -1 1 -3 -5 -11 -5 22 5 3 -7 8 0 4 -2 -0 4 1 -2 0 -0 -1 -0 1 0
-5 -11 -11 3 -4 11 10 2 2 2 7 6 2 4 -0 -5 -0 12 2 5 2 -4 -7 5 -3 2 -4 -2 -2 -0 2 1 -2 -0 0 1 2 -1
18 -6 5 8 -15 10 -3 2 3 -18 -1 3 2 5 4 4 1 -0 7 -3 1 12 -8 -1 2 7 2 -2 -2 -1 -3 -1 0 1 -1 -0 0 4
5 5 1 1 -1 -3 1 2 -11 3 -5 2 5 2 6 8 6 1 3 -1 -4 1 -7 1 0 1 -0 2 -2 0 -3 -2 -2 1 -0 -1 -1 -1
4 8 1 11 -5 4 12 14 -4 24 14 12 7 2 4 -1 -4 -1 0 -2 -5 -5 5 -1 -2 -1 -2 3 -3 -2 -6 -3 -0 0 -1 5 5 7
5 1 3 3 2 5 -2 12 12 18 11 2 -1 6 -6 -1 6 14 7 4 4 5 3 -1 -2 2 5 -6 -7 -1 3 -6 -7 -4 4 0 1 -0
-1 -6 15 1 16 -10 7 6 12 12 5 8 18 14 18 0 -1 -6 4 5 5 -0 8 -0 -5 5 1 -6 4 1 -4 -5 -4 -7 1 1 4 -2
0 10 2 8 -6 -4 5 5 1 2 2 4 11 8 5 10 7 7 1 3 0 -2 -3 0 -7 2 4 3 6 0 -0 -5 -3 -3 -1 -1 -2 -2
4 -5 -5 2 8 -9 -1 1 3 2 5 2 1 4 4 6 1 10 10 -1 3 -1 0 -3 -3 5 4 1 6 -2 -2 -4 -6 -0 7 -4 -6 -5
1 0 1 -4 5 -11 -5 -0 4 1 -8 6 3 -1 0 3 1 10 10 5 10 -1 -5 7 -2 5 6 -11 2 -2 -8 -3 5 1 -9 -5 -6 -4
-3 1 -2 -4 -1 -5 -3 6 -0 -0 1 -2 -1 1 0 -4 1 -0 7 9 9 3 14 2 -1 -5 -5 -25 -5 7 6 5 -4 -2 -0 -1 -4 -1
1 -1 1 1 2 2 -3 0 3 -5 2 -1 5 1 4 -1 -1 -1 -1 3 1 5 5 4 18 23 10 19 15 -7 -3 0 4 -3 8 -0 3 3
-1 -0 -1 0 1 -2 -0 2 -2 2 -3 7 -5 -2 2 -6 1 3 -7 0 2 -2 -1 1 5 10 4 4 -6 4 -9 2 4 1 5 2 2 -7
-3 -5 -3 -1 -4 -2 1 -2 3 3 -3 0 -1 -4 -3 4 -10 3 1 -1 -0 0 0 -0 -2 5 3 3 15 14 3 -1 3 8 8 6 6 -0
Height
1400 1408 1419 1430 1444 1450 1460 1462 1468 1484 1489 1493 1496 1502 1507 1512 1514 1520 1523 1527 1530 1535 1540 1543 1545 1548 1551 1554 1557 1559 1561 1562 1564 1567 1570 1571 1573 1575
1398 1395 1410 1420 1433 1441 1451 1456 1462 1471 1479 1486 1489 1493 1501 1504 1509 1514 1517 1523 1526 1530 1534 1538 1541 1545 1547 1550 1554 1556 1557 1560 1563 1566 1568 1570 1572 1574
1374 1385 1397 1407 1418 1430 1442 1449 1455 1463 1470 1479 1483 1487 1494 1498 1502 1508 1512 1517 1521 1525 1529 1533 1537 1541 1544 1546 1550 1552 1554 1557 1560 1563 1565 1567 1569 1572
1365 1371 1386 1399 1409 1422 1432 1440 1449 1455 1464 1471 1476 1481 1486 1491 1495 1501 1506 1509 1514 1519 1524 1528 1532 1536 1540 1542 1545 1548 1551 1554 1556 1559 1562 1564 1566 1568
1350 1364 1376 1390 1401 1412 1421 1434 1442 1450 1457 1463 1467 1475 1480 1484 1490 1493 1500 1502 1507 1512 1519 1523 1526 1529 1533 1537 1540 1543 1545 1549 1552 1555 1558 1560 1563 1565
1349 1359 1370 1379 1390 1400 1410 1423 1434 1443 1450 1454 1460 1467 1473 1477 1482 1486 1492 1496 1500 1505 1512 1516 1519 1523 1526 1530 1534 1537 1540 1543 1546 1549 1552 1555 1557 1559
1340 1353 1363 1374 1382 1392 1404 1414 1425 1434 1440 1446 1452 1459 1465 1469 1474 1480 1485 1490 1494 1498 1502 1507 1512 1515 1518 1522 1526 1530 1533 1536 1539 1542 1546 1548 1551 1553
1336 1346 1358 1367 1376 1385 1397 1404 1414 1420 1428 1436 1442 1449 1455 1462 1469 1472 1478 1482 1487 1490 1494 1500 1504 1506 1509 1513 1517 1521 1525 1528 1531 1535 1538 1541 1544 1546
1332 1340 1350 1358 1367 1378 1389 1398 1408 1413 1420 1425 1432 1440 1448 1453 1462 1465 1469 1473 1476 1481 1487 1491 1495 1496 1499 1504 1509 1513 1517 1521 1524 1527 1530 1534 1536 1539
1331 1338 1346 1352 1361 1372 1379 1388 1399 1406 1413 1418 1426 1434 1440 1446 1452 1457 1462 1467 1472 1475 1479 1481 1486 1486 1490 1495 1501 1504 1509 1512 1516 1519 1522 1525 1528 1531
1327 1336 1346 1353 1359 1366 1372 1380 1389 1397 1406 1413 1421 1429 1434 1439 1444 1450 1453 1458 1462 1466 1469 1473 1478 1481 1482 1486 1490 1494 1499 1503 1507 1510 1513 1516 1520 1523
1330 1334 1344 1348 1355 1361 1369 1374 1380 1387 1396 1404 1412 1420 1426 1433 1436 1439 1444 1447 1454 1458 1459 1466 1471 1476 1476 1475 1479 1483 1488 1493 1497 1501 1503 1506 1511 1514
1328 1338 1340 1347 1351 1357 1364 1368 1374 1382 1389 1396 1403 1411 1418 1422 1427 1431 1435 1438 1444 1448 1451 1457 1461 1465 1467 1468 1471 1474 1477 1483 1487 1490 1493 1496 1499 1503
1329 1335 1339 1341 1345 1351 1357 1362 1368 1374 1380 1385 1390 1398 1405 1411 1416 1422 1426 1431 1435 1441 1446 1448 1453 1455 1458 1462 1464 1467 1471 1473 1475 1479 1482 1485 1488 1492
1331 1333 1336 1338 1339 1348 1355 1359 1364 1368 1375 1378 1383 1388 1394 1401 1408 1413 1418 1424 1429 1433 1436 1440 1444 1450 1451 1451 1455 1458 1462 1463 1468 1471 1473 1474 1477 1481
1333 1338 1341 1339 1342 1346 1351 1355 1357 1361 1365 1373 1380 1383 1386 1392 1397 1403 1408 1414 1418 1422 1427 1431 1436 1441 1443 1445 1447 1449 1452 1455 1457 1461 1464 1466 1467 1468
1347 1346 1340 1344 1337 1345 1348 1353 1354 1356 1361 1369 1374 1375 1378 1385 1390 1395 1398 1403 1406 1411 1416 1420 1426 1431 1432 1437 1437 1439 1443 1445 1448 1452 1454 1455 1457 1460
1349 1344 1347 1342 1343 1344 1350 1354 1354 1357 1358 1363 1365 1369 1372 1378 1383 1389 1391 1394 1397 1401 1405 1409 1416 1421 1423 1422 1427 1429 1433 1435 1438 1441 1442 1444 1447 1449
1352 1352 1352 1351 1352 1346 1356 1356 1354 1352 1356 1359 1359 1363 1367 1371 1377 1380 1381 1386 1388 1391 1395 1401 1404 1407 1410 1407 1416 1419 1422 1424 1427 1429 1431 1432 1434 1438
1361 1360 1359 1360 1358 1354 1360 1362 1358 1359 1358 1359 1361 1363 1364 1367 1369 1372 1374 1376 1379 1382 1386 1390 1392 1395 1398 1399 1402 1403 1407 1413 1415 1416 1419 1421 1423 1426
1364 1364 1364 1362 1363 1359 1365 1367 1364 1363 1362 1360 1360 1359 1358 1360 1364 1366 1369 1371 1371 1374 1376 1379 1384 1387 1389 1392 1390 1390 1397 1400 1403 1405 1408 1409 1411 1411
1370 1370 1369 1366 1365 1366 1370 1370 1368 1362 1364 1360 1359 1361 1363 1360 1363 1362 1361 1365 1365 1367 1369 1370 1374 1375 1377 1377 1377 1381 1382 1387 1389 1392 1396 1397 1398 1395
1378 1376 1373 1371 1374 1376 1375 1372 1369 1363 1361 1362 1360 1362 1364 1361 1362 1361 1359 1359 1358 1359 1361 1361 1365 1367 1365 1365 1368 1370 1371 1374 1377 1378 1379 1381 1384 1385